TUI4202 EDDF-LOWI

Flight info

Callsign TUI4202
Flight time 0h 49m
Altitude 29000
Route SULUS7S/18 SULUS Z650 NIKUS M736 RDG/N0452F280 M736 DOSEL/N0446F270 M736 TULSI TULSI3A
Aircraft B738/M-SDE2E3FGHIRWXY/LB1

Departure

Time 2026-05-06 17:36
Airport Frankfurt Main Airport (EDDF)

Arrival

Time 2026-05-06 18:25
Airport Innsbruck Airport (LOWI)
Time Latitude Longitude Altitude Speed Heading
2026-05-06 16:53 50.04765 8.58239 361 ft 0 kts 160°
2026-05-06 17:19 50.04783 8.58228 355 ft 3 kts 159°
2026-05-06 17:19 50.04802 8.58217 347 ft 3 kts 178°
2026-05-06 17:19 50.04822 8.58224 355 ft 3 kts 224°
2026-05-06 17:20 50.04828 8.58234 355 ft 0 kts 242°
2026-05-06 17:23 50.04825 8.58224 345 ft 5 kts 242°
2026-05-06 17:23 50.04803 8.58145 347 ft 10 kts 249°
2026-05-06 17:23 50.04788 8.58081 346 ft 2 kts 250°
2026-05-06 17:24 50.04787 8.58075 350 ft 0 kts 250°
2026-05-06 17:24 50.04781 8.58048 351 ft 8 kts 249°
2026-05-06 17:24 50.04734 8.57947 351 ft 14 kts 229°
2026-05-06 17:24 50.04684 8.57801 352 ft 17 kts 248°
2026-05-06 17:25 50.04639 8.57616 350 ft 20 kts 249°
2026-05-06 17:25 50.04589 8.57407 350 ft 22 kts 250°
2026-05-06 17:25 50.04536 8.57188 348 ft 21 kts 249°
2026-05-06 17:25 50.04486 8.56973 345 ft 21 kts 250°
2026-05-06 17:26 50.04437 8.56766 348 ft 20 kts 250°
2026-05-06 17:26 50.04388 8.56566 345 ft 19 kts 249°
2026-05-06 17:26 50.04358 8.56435 351 ft 19 kts 250°
2026-05-06 17:26 50.04312 8.56246 352 ft 18 kts 249°
2026-05-06 17:27 50.04268 8.56061 351 ft 18 kts 250°
2026-05-06 17:27 50.04218 8.55854 352 ft 23 kts 249°
2026-05-06 17:27 50.04158 8.55603 348 ft 25 kts 250°
2026-05-06 17:27 50.04101 8.55362 348 ft 23 kts 250°
2026-05-06 17:28 50.04046 8.55132 347 ft 22 kts 249°
2026-05-06 17:28 50.03993 8.54909 349 ft 22 kts 249°
2026-05-06 17:28 50.03941 8.54693 350 ft 21 kts 249°
2026-05-06 17:28 50.03889 8.54483 350 ft 20 kts 249°
2026-05-06 17:29 50.03825 8.54290 350 ft 20 kts 238°
2026-05-06 17:29 50.03771 8.54097 348 ft 19 kts 249°
2026-05-06 17:29 50.03718 8.53876 354 ft 24 kts 249°
2026-05-06 17:29 50.03654 8.53622 346 ft 26 kts 248°
2026-05-06 17:30 50.03593 8.53368 351 ft 24 kts 250°
2026-05-06 17:30 50.03543 8.53157 352 ft 18 kts 249°
2026-05-06 17:30 50.03512 8.53030 350 ft 0 kts 249°
2026-05-06 17:30 50.03505 8.53002 354 ft 11 kts 249°
2026-05-06 17:31 50.03469 8.52858 352 ft 16 kts 247°
2026-05-06 17:31 50.03440 8.52750 353 ft 0 kts 248°
2026-05-06 17:31 50.03437 8.52737 353 ft 2 kts 247°
2026-05-06 17:32 50.03435 8.52731 347 ft 0 kts 247°
2026-05-06 17:33 50.03435 8.52730 347 ft 1 kts 247°
2026-05-06 17:33 50.03419 8.52673 352 ft 10 kts 245°
2026-05-06 17:34 50.03364 8.52600 348 ft 11 kts 195°
2026-05-06 17:34 50.03334 8.52595 345 ft 0 kts 182°
2026-05-06 17:35 50.03326 8.52595 347 ft 7 kts 182°
2026-05-06 17:35 50.03055 8.52597 345 ft 76 kts 179°
2026-05-06 17:35 50.02295 8.52604 352 ft 140 kts 180°
2026-05-06 17:36 50.00140 8.52582 1662 ft 161 kts 183°
2026-05-06 17:36 49.98916 8.52579 1982 ft 196 kts 181°
2026-05-06 17:36 49.97483 8.52773 2287 ft 216 kts 163°
2026-05-06 17:36 49.96204 8.54123 2776 ft 232 kts 134°
2026-05-06 17:37 49.95310 8.56224 3493 ft 235 kts 122°
2026-05-06 17:37 49.94504 8.58474 4127 ft 241 kts 122°
2026-05-06 17:37 49.93935 8.60942 4776 ft 252 kts 98°
2026-05-06 17:37 49.93872 8.63775 5155 ft 272 kts 92°
2026-05-06 17:38 49.93809 8.66749 5749 ft 281 kts 96°
2026-05-06 17:38 49.93348 8.69706 6320 ft 284 kts 123°
2026-05-06 17:38 49.92029 8.71883 7101 ft 277 kts 149°
2026-05-06 17:38 49.90398 8.73459 7943 ft 276 kts 150°
2026-05-06 17:39 49.88774 8.75134 8598 ft 285 kts 145°
2026-05-06 17:39 49.87443 8.77438 9414 ft 293 kts 123°
2026-05-06 17:39 49.86500 8.80290 10100 ft 301 kts 118°
2026-05-06 17:39 49.85534 8.83257 10544 ft 317 kts 121°
2026-05-06 17:40 49.84457 8.86351 10882 ft 335 kts 121°
2026-05-06 17:40 49.83302 8.89595 11172 ft 354 kts 121°
2026-05-06 17:40 49.82066 8.93011 11429 ft 372 kts 122°
2026-05-06 17:40 49.80793 8.96522 12111 ft 376 kts 122°
2026-05-06 17:41 49.79498 9.00083 12728 ft 383 kts 122°
2026-05-06 17:41 49.78183 9.03716 13292 ft 391 kts 122°
2026-05-06 17:41 49.76840 9.07412 13926 ft 397 kts 122°
2026-05-06 17:41 49.75643 9.11210 15013 ft 391 kts 112°
2026-05-06 17:42 49.74956 9.15308 15753 ft 399 kts 103°
2026-05-06 17:42 49.74434 9.19575 16283 ft 408 kts 103°
2026-05-06 17:42 49.73853 9.23892 16935 ft 411 kts 105°
2026-05-06 17:42 49.73194 9.28187 17758 ft 410 kts 106°
2026-05-06 17:43 49.72495 9.32460 18460 ft 411 kts 107°
2026-05-06 17:43 49.71777 9.36765 18985 ft 416 kts 107°
2026-05-06 17:43 49.71050 9.41125 19484 ft 422 kts 107°
2026-05-06 17:43 49.70321 9.45531 20018 ft 426 kts 106°
2026-05-06 17:44 49.69587 9.49986 20554 ft 429 kts 106°
2026-05-06 17:44 49.68850 9.54473 21058 ft 433 kts 106°
2026-05-06 17:44 49.68105 9.58995 21575 ft 437 kts 107°
2026-05-06 17:44 49.67358 9.63567 22075 ft 441 kts 104°
2026-05-06 17:45 49.67111 9.68307 22517 ft 450 kts 85°
2026-05-06 17:45 49.67793 9.73045 23056 ft 454 kts 75°
2026-05-06 17:45 49.68691 9.77743 23521 ft 458 kts 75°
2026-05-06 17:45 49.69589 9.82478 23905 ft 461 kts 75°
2026-05-06 17:46 49.70457 9.87261 24303 ft 464 kts 76°
2026-05-06 17:46 49.71309 9.92085 24711 ft 467 kts 76°
2026-05-06 17:46 49.72514 9.96762 25053 ft 473 kts 59°
2026-05-06 17:46 49.74420 10.00948 25371 ft 478 kts 54°
2026-05-06 17:47 49.76414 10.05088 25689 ft 483 kts 54°
2026-05-06 17:47 49.78428 10.09286 25922 ft 489 kts 54°
2026-05-06 17:47 49.80440 10.13541 26258 ft 491 kts 55°
2026-05-06 17:47 49.82445 10.17838 26633 ft 494 kts 56°
2026-05-06 17:48 49.84447 10.22177 26965 ft 496 kts 56°
2026-05-06 17:48 49.86452 10.26551 27288 ft 499 kts 56°
2026-05-06 17:48 49.88465 10.30956 27623 ft 501 kts 57°
2026-05-06 17:48 49.90454 10.35313 28057 ft 501 kts 57°
2026-05-06 17:49 49.92466 10.39724 28537 ft 500 kts 57°
2026-05-06 17:49 49.94478 10.44141 28801 ft 503 kts 57°
2026-05-06 17:49 49.98204 10.53481 28739 ft 505 kts 76°
2026-05-06 17:50 49.98798 10.58704 28792 ft 493 kts 95°
2026-05-06 17:50 49.98364 10.63901 28811 ft 481 kts 111°
2026-05-06 17:50 49.97202 10.68717 28793 ft 472 kts 122°
2026-05-06 17:50 49.95536 10.73041 28791 ft 463 kts 133°
2026-05-06 17:51 49.93359 10.76613 28794 ft 450 kts 146°
2026-05-06 17:51 49.90903 10.79599 28794 ft 448 kts 148°
2026-05-06 17:51 49.85945 10.85360 28786 ft 442 kts 149°
2026-05-06 17:52 49.81050 10.91048 28788 ft 438 kts 148°
2026-05-06 17:52 49.76199 10.96758 28786 ft 438 kts 148°
2026-05-06 17:53 49.71356 11.02479 28789 ft 439 kts 148°
2026-05-06 17:53 49.66501 11.08207 28795 ft 439 kts 148°
2026-05-06 17:54 49.61631 11.13936 28792 ft 440 kts 148°
2026-05-06 17:54 49.56758 11.19652 28791 ft 441 kts 148°
2026-05-06 17:55 49.51866 11.25378 28801 ft 442 kts 148°
2026-05-06 17:55 49.46957 11.31106 28793 ft 443 kts 148°
2026-05-06 17:56 49.42035 11.36834 28797 ft 445 kts 148°
2026-05-06 17:56 49.37118 11.42542 28801 ft 447 kts 149°
2026-05-06 17:57 49.32056 11.48041 28801 ft 442 kts 158°
2026-05-06 17:57 49.26336 11.51057 28808 ft 431 kts 175°
2026-05-06 17:58 49.20407 11.52314 28803 ft 430 kts 176°
2026-05-06 17:58 49.14468 11.53538 28807 ft 431 kts 176°
2026-05-06 17:59 49.08519 11.54804 28783 ft 431 kts 176°
2026-05-06 17:59 49.02584 11.56089 28801 ft 431 kts 176°
2026-05-06 18:00 48.96646 11.57377 28787 ft 431 kts 176°
2026-05-06 18:00 48.90710 11.58662 28785 ft 431 kts 176°
2026-05-06 18:01 48.84775 11.59941 28775 ft 431 kts 176°
2026-05-06 18:01 48.81799 11.60581 28588 ft 432 kts 176°
2026-05-06 18:01 48.78825 11.61217 28309 ft 431 kts 176°
2026-05-06 18:02 48.75869 11.61855 28037 ft 428 kts 176°
2026-05-06 18:02 48.72924 11.62489 27764 ft 426 kts 176°
2026-05-06 18:02 48.69985 11.63119 27499 ft 427 kts 176°
2026-05-06 18:02 48.67050 11.63750 27211 ft 424 kts 176°
2026-05-06 18:03 48.64121 11.64378 26756 ft 425 kts 176°
2026-05-06 18:03 48.61203 11.64998 26146 ft 423 kts 176°
2026-05-06 18:03 48.58283 11.65618 25305 ft 423 kts 175°
2026-05-06 18:03 48.55375 11.66236 24490 ft 421 kts 175°
2026-05-06 18:04 48.52487 11.66851 23858 ft 417 kts 175°
2026-05-06 18:04 48.49616 11.67462 23272 ft 416 kts 175°
2026-05-06 18:04 48.46755 11.68071 22573 ft 415 kts 175°
2026-05-06 18:04 48.43904 11.68675 21897 ft 412 kts 175°
2026-05-06 18:05 48.41078 11.69275 21245 ft 409 kts 175°
2026-05-06 18:05 48.38276 11.69868 20584 ft 406 kts 175°
2026-05-06 18:05 48.35497 11.70457 20052 ft 400 kts 175°
2026-05-06 18:05 48.32745 11.71038 19900 ft 400 kts 175°
2026-05-06 18:06 48.30002 11.71614 19799 ft 392 kts 175°
2026-05-06 18:06 48.27375 11.72171 19767 ft 368 kts 176°
2026-05-06 18:06 48.24929 11.72695 19752 ft 343 kts 176°
2026-05-06 18:06 48.22651 11.73182 19756 ft 320 kts 176°
2026-05-06 18:07 48.20516 11.73634 19752 ft 301 kts 176°
2026-05-06 18:07 48.18449 11.74064 19770 ft 301 kts 176°
2026-05-06 18:07 48.16367 11.74490 19779 ft 303 kts 176°
2026-05-06 18:07 48.14278 11.74922 19780 ft 303 kts 176°
2026-05-06 18:08 48.12196 11.75356 19774 ft 303 kts 176°
2026-05-06 18:08 48.10110 11.75791 19779 ft 302 kts 176°
2026-05-06 18:08 48.08027 11.76225 19774 ft 302 kts 176°
2026-05-06 18:08 48.05940 11.76661 19767 ft 302 kts 176°
2026-05-06 18:09 48.03857 11.77095 19752 ft 302 kts 176°
2026-05-06 18:09 48.02478 11.77382 19753 ft 302 kts 176°
2026-05-06 18:09 48.00397 11.77816 19762 ft 302 kts 176°
2026-05-06 18:09 47.98317 11.78250 19759 ft 302 kts 176°
2026-05-06 18:10 47.96241 11.78682 19459 ft 302 kts 176°
2026-05-06 18:10 47.94159 11.79115 18951 ft 302 kts 176°
2026-05-06 18:10 47.91410 11.79686 18227 ft 301 kts 175°
2026-05-06 18:10 47.90006 11.79948 17829 ft 299 kts 178°
2026-05-06 18:11 47.87935 11.79982 17219 ft 296 kts 185°
2026-05-06 18:11 47.85879 11.79849 16606 ft 295 kts 185°
2026-05-06 18:11 47.83828 11.79705 16021 ft 295 kts 185°
2026-05-06 18:11 47.81780 11.79569 15448 ft 294 kts 185°
2026-05-06 18:12 47.79742 11.79442 14874 ft 292 kts 184°
2026-05-06 18:12 47.77737 11.79526 14441 ft 289 kts 179°
2026-05-06 18:12 47.75772 11.79802 14349 ft 272 kts 178°
2026-05-06 18:12 47.73942 11.80085 14242 ft 257 kts 178°
2026-05-06 18:13 47.72229 11.80349 13977 ft 249 kts 178°
2026-05-06 18:13 47.70433 11.80608 13208 ft 267 kts 179°
2026-05-06 18:13 47.68584 11.80868 13041 ft 267 kts 178°
2026-05-06 18:13 47.66741 11.81125 12906 ft 264 kts 177°
2026-05-06 18:14 47.64877 11.81381 12800 ft 275 kts 178°
2026-05-06 18:14 47.62953 11.81647 12762 ft 278 kts 178°
2026-05-06 18:14 47.61053 11.81905 12487 ft 273 kts 178°
2026-05-06 18:14 47.59177 11.82159 12025 ft 271 kts 177°
2026-05-06 18:15 47.57278 11.82418 11519 ft 275 kts 177°
2026-05-06 18:15 47.55377 11.82669 11144 ft 274 kts 177°
2026-05-06 18:15 47.53493 11.82919 10819 ft 270 kts 177°
2026-05-06 18:15 47.51616 11.83166 10525 ft 271 kts 177°
2026-05-06 18:16 47.49746 11.83410 10118 ft 269 kts 178°
2026-05-06 18:16 47.47896 11.83623 9820 ft 259 kts 176°
2026-05-06 18:16 47.46160 11.83872 9710 ft 243 kts 176°
2026-05-06 18:16 47.44502 11.84103 9585 ft 238 kts 176°
2026-05-06 18:17 47.42861 11.84326 9494 ft 235 kts 176°
2026-05-06 18:17 47.41244 11.84544 9469 ft 232 kts 176°
2026-05-06 18:17 47.39657 11.84751 9491 ft 224 kts 176°
2026-05-06 18:17 47.38149 11.84953 9456 ft 212 kts 176°
2026-05-06 18:18 47.36715 11.85146 9452 ft 202 kts 176°
2026-05-06 18:18 47.35328 11.85329 9466 ft 199 kts 176°
2026-05-06 18:18 47.33961 11.85147 9462 ft 200 kts 205°
2026-05-06 18:18 47.33078 11.83627 9493 ft 202 kts 244°
2026-05-06 18:19 47.32598 11.81674 9492 ft 204 kts 244°
2026-05-06 18:19 47.32185 11.79652 9247 ft 214 kts 253°
2026-05-06 18:19 47.31912 11.77459 8829 ft 220 kts 255°
2026-05-06 18:19 47.31648 11.75223 8497 ft 223 kts 256°
2026-05-06 18:20 47.31365 11.72992 8114 ft 221 kts 255°
2026-05-06 18:20 47.31075 11.70789 7754 ft 217 kts 253°
2026-05-06 18:20 47.30775 11.68623 7353 ft 213 kts 256°
2026-05-06 18:20 47.30500 11.66527 7016 ft 204 kts 252°
2026-05-06 18:21 47.30220 11.64525 6714 ft 197 kts 255°
2026-05-06 18:21 47.29941 11.62555 6419 ft 196 kts 253°
2026-05-06 18:21 47.29668 11.60634 6097 ft 187 kts 256°
2026-05-06 18:21 47.29406 11.58807 5756 ft 178 kts 255°
2026-05-06 18:22 47.29154 11.57062 5425 ft 171 kts 255°
2026-05-06 18:22 47.28918 11.55367 5159 ft 168 kts 254°
2026-05-06 18:22 47.28680 11.53655 4906 ft 175 kts 256°
2026-05-06 18:22 47.28422 11.51854 4638 ft 183 kts 256°
2026-05-06 18:23 47.28157 11.50016 4317 ft 183 kts 256°
2026-05-06 18:23 47.27901 11.48194 3990 ft 183 kts 256°
2026-05-06 18:23 47.27662 11.46426 3791 ft 167 kts 254°
2026-05-06 18:23 47.27392 11.44799 3390 ft 161 kts 253°
2026-05-06 18:24 47.27153 11.43244 3085 ft 153 kts 255°
2026-05-06 18:24 47.26951 11.41717 2876 ft 152 kts 256°
2026-05-06 18:24 47.26754 11.40181 2624 ft 153 kts 255°
2026-05-06 18:24 47.26516 11.38650 2369 ft 154 kts 257°
2026-05-06 18:25 47.26322 11.37116 2174 ft 151 kts 257°
2026-05-06 18:25 47.26149 11.35592 1976 ft 151 kts 256°
2026-05-06 18:25 47.26002 11.34253 1941 ft 88 kts 262°
2026-05-06 18:25 47.25956 11.33792 1943 ft 18 kts 261°
2026-05-06 18:26 47.25892 11.33731 1930 ft 13 kts 152°
2026-05-06 18:26 47.25843 11.33813 1935 ft 8 kts 128°
2026-05-06 18:26 47.25808 11.33881 1934 ft 8 kts 123°
2026-05-06 18:26 47.25782 11.33956 1937 ft 9 kts 110°
2026-05-06 18:27 47.25773 11.34060 1941 ft 13 kts 87°
2026-05-06 18:27 47.25788 11.34211 1937 ft 17 kts 81°
2026-05-06 18:27 47.25806 11.34391 1900 ft 17 kts 81°
2026-05-06 18:27 47.25824 11.34555 1896 ft 16 kts 81°
2026-05-06 18:28 47.25835 11.34661 1903 ft 5 kts 80°
2026-05-06 18:28 47.25838 11.34690 1898 ft 2 kts 81°
2026-05-06 18:28 47.25843 11.34730 1906 ft 8 kts 81°
2026-05-06 18:28 47.25852 11.34813 1895 ft 8 kts 81°
2026-05-06 18:29 47.25830 11.34863 1898 ft 6 kts 168°
2026-05-06 18:29 47.25808 11.34868 1899 ft 0 kts 170°